EW8749 Weather Reports


time (UTC)temp
F
wind
direction
speed
knots
gust
knots
rain 1hr
in
rain 24hr
in
rain mn
in
humidity
%
barometer
mb
20260831050036 67 272 0.0 0.9 0.00 0.01 0.01 52 1029.8
20260831044520 66 279 0.0 0.0 0.00 0.01 0.01 51 1029.8
20260831043018 66 235 0.0 1.7 0.00 0.01 0.01 49 1029.9
20260831041517 66 330 0.0 7.0 0.00 0.01 0.01 47 1029.9
20260831040038 67 228 0.0 0.0 0.00 0.01 0.01 45 1030.0
20260831034513 67 290 0.0 0.0 0.00 0.01 0.01 46 1030.1
20260831033017 67 281 0.0 0.0 0.00 0.01 0.01 48 1030.3
20260831031507 66 241 0.9 7.0 0.00 0.01 0.01 50 1030.5
20260831030015 66 320 0.0 6.1 0.00 0.01 0.01 52 1030.7
20260831024503 66 317 0.0 0.0 0.00 0.01 0.01 51 1030.9
20260831023100 65 264 0.0 0.0 0.00 0.01 0.01 52 1031.2
20260831021559 65 239 0.0 0.0 0.00 0.01 0.01 54 1031.4
20260831020054 64 292 0.0 0.0 0.00 0.01 0.01 59 1031.6
20260831014553 64 238 0.0 0.0 0.00 0.01 0.01 56 1031.8
20260831013050 63 206 0.0 0.0 0.00 0.01 0.01 57 1032.0
20260831011547 62 253 0.0 0.0 0.00 0.01 0.01 57 1032.3
20260831004545 61 105 0.0 0.0 0.00 0.01 0.01 57 1032.7
20260831003038 59 112 0.0 0.0 0.00 0.01 0.01 62 1032.8
20260831001535 58 100 0.0 0.0 0.00 0.01 0.01 65 1033.0
20260831000033 57 81 0.0 0.0 0.00 0.01 0.01 67 1033.1
20260830234527 55 117 0.0 0.0 0.00 0.01 0.01 68 1033.3
20260830233032 53 117 0.0 0.0 0.00 0.01 0.01 71 1033.4
20260830231519 51 117 0.0 0.0 0.00 0.01 0.01 76 1033.5
20260830230022 50 117 0.0 0.0 0.00 0.01 0.01 81 1033.5
20260830224511 48 117 0.0 0.0 0.00 0.01 0.01 84 1033.5
20260830223012 48 259 0.0 0.0 0.00 0.01 0.01 86 1033.5
20260830221505 46 259 0.0 0.0 0.00 0.01 0.01 90 1033.5
20260830220105 45 259 0.0 0.0 0.00 0.01 0.01 91 1033.4
20260830214603 43 259 0.0 0.0 0.00 0.02 0.01 91 1033.4
20260830213059 42 259 0.0 0.0 0.00 0.02 0.01 91 1033.3
20260830211557 40 259 0.0 0.0 0.00 0.02 0.01 91 1033.1
20260830210054 40 259 0.0 0.0 0.00 0.02 0.01 91 1032.9
20260830204559 39 259 0.0 0.0 0.01 0.02 0.01 91 1032.7
20260830203051 39 258 0.0 0.0 0.01 0.02 0.01 91 1032.7
20260830201558 39 259 0.0 0.0 0.01 0.02 0.01 91 1032.5
20260830200052 39 259 0.0 0.0 0.01 0.02 0.01 92 1032.4
20260830194550 39 259 0.0 0.0 0.00 0.01 0.00 92 1032.3
20260830193046 39 259 0.0 0.0 0.00 0.01 0.00 92 1032.2
20260830191616 40 259 0.0 0.0 0.00 0.01 0.00 92 1032.1
20260830190054 41 259 0.0 0.0 0.00 0.01 0.00 91 1031.9
20260830184541 41 259 0.0 0.0 0.00 0.01 0.00 91 1031.9
20260830183040 40 259 0.0 0.0 0.00 0.01 0.00 91 1031.9
20260830181542 40 259 0.0 0.0 0.00 0.01 0.00 92 1031.8
20260830180039 40 258 0.0 0.0 0.00 0.01 0.00 92 1031.6
20260830174636 41 258 0.0 0.0 0.00 0.01 0.00 92 1031.6
20260830173033 41 259 0.0 0.0 0.00 0.01 0.00 92 1031.5
20260830171532 41 259 0.0 0.0 0.00 0.01 0.00 92 1031.5
20260830170030 41 259 0.0 0.0 0.00 0.01 0.00 92 1031.7
20260830164528 41 259 0.0 0.0 0.00 0.01 0.00 92 1031.8
20260830163036 43 259 0.0 0.0 0.00 0.01 0.00 92 1031.8
20260830161523 43 258 0.0 0.0 0.00 0.01 0.00 92 1032.0
20260830160033 43 259 0.0 0.0 0.00 0.01 0.00 92 1032.1
20260830154524 43 20 0.0 0.0 0.00 0.01 0.00 92 1032.0
20260830153018 43 20 0.0 0.0 0.00 0.01 0.00 92 1031.9
20260830151516 43 20 0.0 0.0 0.00 0.01 0.00 92 1032.1
20260830150020 44 217 0.0 0.0 0.00 0.01 0.00 92 1032.2
20260830144521 44 31 0.0 0.0 0.00 0.01 0.00 92 1032.5
20260830143011 44 31 0.0 0.0 0.00 0.01 0.00 92 1032.4
20260830141515 44 31 0.0 0.0 0.00 0.01 0.00 91 1032.4
20260830140007 44 31 0.0 0.0 0.00 0.01 0.01 92 1032.5
20260830134506 43 31 0.0 0.0 0.00 0.01 0.01 92 1032.4
20260830133005 44 31 0.0 0.0 0.00 0.01 0.01 92 1032.6
20260830131505 44 31 0.0 0.0 0.00 0.01 0.01 92 1032.6
20260830130005 45 31 0.0 0.0 0.00 0.01 0.01 91 1032.4
20260830124506 45 31 0.0 0.0 0.00 0.01 0.01 91 1032.4
20260830123009 45 31 0.0 0.0 0.00 0.01 0.01 91 1032.5
20260830121506 46 31 0.0 0.0 0.00 0.01 0.01 90 1032.4
20260830120003 46 31 0.0 0.0 0.00 0.01 0.01 91 1032.3
20260830114503 46 31 0.0 0.0 0.00 0.01 0.01 89 1032.2
20260830111502 48 31 0.0 0.0 0.00 0.01 0.01 87 1031.9
20260830110002 49 31 0.0 0.0 0.00 0.01 0.01 85 1031.7
20260830104501 50 31 0.0 0.0 0.00 0.01 0.01 84 1031.5
20260830103002 51 31 0.0 0.0 0.00 0.01 0.01 82 1031.4
20260830101615 53 31 0.0 0.0 0.00 0.01 0.01 79 1031.4
20260830100100 54 358 0.0 0.0 0.00 0.01 0.01 78 1031.2
20260830094559 54 19 0.0 0.0 0.00 0.01 0.01 76 1031.1
20260830093059 55 317 0.0 0.0 0.00 0.01 0.01 75 1031.0
20260830091559 55 287 0.0 0.0 0.00 0.01 0.01 73 1030.9
20260830090058 55 254 0.0 0.0 0.00 0.01 0.01 72 1030.9
20260830084557 56 312 0.0 0.9 0.00 0.01 0.01 70 1030.8
20260830083106 56 290 0.0 0.0 0.00 0.01 0.01 68 1030.7
20260830081556 56 302 0.0 0.0 0.00 0.01 0.01 67 1030.5
20260830080056 57 250 0.0 0.0 0.00 0.01 0.01 67 1030.3
20260830074555 58 242 0.0 0.9 0.00 0.01 0.01 66 1030.2
20260830073055 59 301 0.0 0.0 0.00 0.01 0.01 64 1030.2
20260830071607 60 251 0.0 0.0 0.00 0.01 0.01 63 1030.1
20260830070109 62 235 0.0 1.7 0.00 0.01 0.01 61 1030.0
20260830064553 63 274 0.0 0.0 0.00 0.01 0.01 60 1030.0
20260830063055 63 50 0.0 6.1 0.00 0.01 0.01 57 1029.9
20260830061552 63 308 0.0 4.3 0.00 0.01 0.01 53 1029.8
20260830060054 64 5 0.0 0.0 0.00 0.01 0.01 49 1029.8
20260830054549 64 258 0.0 0.9 0.00 0.01 0.01 52 1029.9
20260830053053 64 253 0.0 9.6 0.00 0.01 0.01 57 1030.0
20260830051552 64 263 0.0 3.5 0.00 0.01 0.01 55 1030.0